owner,sensor,date,latitude,longitude,vertical_datum,wind_speed,wind_to_direction,wind_speed_of_gust,qcFlag 
WAVCIS,ioos:station:WAVCIS:CSI06:1,2013-11-01T00:00:00Z,28.8667,-90.4833,10.0,8.88,199.0,,'11111222,11111222,99999999' 
WAVCIS,ioos:station:WAVCIS:CSI06:1,2013-11-01T01:00:00Z,28.8667,-90.4833,10.0,8.04,188.0,,'11111222,11111222,99999999' 
WAVCIS,ioos:station:WAVCIS:CSI06:1,2013-11-01T02:00:00Z,28.8667,-90.4833,10.0,7.01,191.0,,'11111222,11111222,99999999' 
WAVCIS,ioos:station:WAVCIS:CSI06:1,2013-11-01T03:00:00Z,28.8667,-90.4833,10.0,11.0,315.0,,'11111222,11111222,99999999' 
WAVCIS,ioos:station:WAVCIS:CSI06:1,2013-11-01T04:00:00Z,28.8667,-90.4833,10.0,6.833,162.0,,'11111222,11111222,99999999' 
WAVCIS,ioos:station:WAVCIS:CSI06:1,2013-11-01T05:00:00Z,28.8667,-90.4833,10.0,11.09,165.0,,'11111222,11111222,99999999' 
WAVCIS,ioos:station:WAVCIS:CSI06:1,2013-11-01T06:00:00Z,28.8667,-90.4833,10.0,12.36,159.0,,'11111222,11111222,99999999' 
WAVCIS,ioos:station:WAVCIS:CSI06:1,2013-11-01T07:00:00Z,28.8667,-90.4833,10.0,8.84,202.0,,'11111222,11111222,99999999' 
WAVCIS,ioos:station:WAVCIS:CSI06:1,2013-11-01T08:00:00Z,28.8667,-90.4833,10.0,9.35,218.0,,'11111222,11111222,99999999' 
WAVCIS,ioos:station:WAVCIS:CSI06:1,2013-11-01T09:00:00Z,28.8667,-90.4833,10.0,9.15,232.0,,'11111222,11111222,99999999' 
WAVCIS,ioos:station:WAVCIS:CSI06:1,2013-11-01T10:00:00Z,28.8667,-90.4833,10.0,11.79,313.0,,'11111222,11111222,99999999' 
WAVCIS,ioos:station:WAVCIS:CSI06:1,2013-11-01T11:00:00Z,28.8667,-90.4833,10.0,8.38,331.0,,'11111222,11111222,99999999' 
WAVCIS,ioos:station:WAVCIS:CSI06:1,2013-11-01T12:00:00Z,28.8667,-90.4833,10.0,10.18,333.0,,'11111222,11111222,99999999' 
WAVCIS,ioos:station:WAVCIS:CSI06:1,2013-11-01T13:00:00Z,28.8667,-90.4833,10.0,5.644,352.0,,'11111222,11111222,99999999' 
WAVCIS,ioos:station:WAVCIS:CSI06:1,2013-11-01T14:00:00Z,28.8667,-90.4833,10.0,5.554,5.0,,'11111222,11111222,99999999' 
WAVCIS,ioos:station:WAVCIS:CSI06:1,2013-11-01T15:00:00Z,28.8667,-90.4833,10.0,5.114,10.0,,'11111222,11111222,99999999' 
WAVCIS,ioos:station:WAVCIS:CSI06:1,2013-11-01T16:00:00Z,28.8667,-90.4833,10.0,4.54,13.0,,'11111222,11111222,99999999' 
WAVCIS,ioos:station:WAVCIS:CSI06:1,2013-11-01T17:00:00Z,28.8667,-90.4833,10.0,3.103,6.0,,'11111222,11111222,99999999' 
WAVCIS,ioos:station:WAVCIS:CSI06:1,2013-11-01T18:00:00Z,28.8667,-90.4833,10.0,2.461,1.0,,'11111222,11111222,99999999' 
WAVCIS,ioos:station:WAVCIS:CSI06:1,2013-11-01T19:00:00Z,28.8667,-90.4833,10.0,3.607,339.0,,'11111222,11111222,99999999' 
WAVCIS,ioos:station:WAVCIS:CSI06:1,2013-11-01T20:00:00Z,28.8667,-90.4833,10.0,4.254,336.0,,'11111222,11111222,99999999' 
WAVCIS,ioos:station:WAVCIS:CSI06:1,2013-11-01T21:00:00Z,28.8667,-90.4833,10.0,3.148,304.0,,'11111222,11111222,99999999' 
WAVCIS,ioos:station:WAVCIS:CSI06:1,2013-11-01T22:00:00Z,28.8667,-90.4833,10.0,4.099,293.0,,'11111222,11111222,99999999' 
WAVCIS,ioos:station:WAVCIS:CSI06:1,2013-11-01T23:00:00Z,28.8667,-90.4833,10.0,4.6,280.0,5.7,'11111222,11111222,11111222' 
WAVCIS,ioos:station:WAVCIS:CSI06:1,2013-11-02T00:00:00Z,28.8667,-90.4833,10.0,5.1,300.0,6.7,'11111222,11111222,11111222' 
WAVCIS,ioos:station:WAVCIS:CSI06:1,2013-11-02T01:00:00Z,28.8667,-90.4833,10.0,4.1,300.0,5.1,'11111222,11111222,11111222' 
WAVCIS,ioos:station:WAVCIS:CSI06:1,2013-11-02T02:00:00Z,28.8667,-90.4833,10.0,4.6,320.0,6.2,'11111222,11111222,11111222' 
WAVCIS,ioos:station:WAVCIS:CSI06:1,2013-11-02T03:00:00Z,28.8667,-90.4833,10.0,4.6,340.0,5.7,'11111222,11111222,11111222' 
WAVCIS,ioos:station:WAVCIS:CSI06:1,2013-11-02T04:00:00Z,28.8667,-90.4833,10.0,3.6,360.0,5.1,'11111222,11144222,11111222' 
WAVCIS,ioos:station:WAVCIS:CSI06:1,2013-11-02T05:00:00Z,28.8667,-90.4833,10.0,3.1,360.0,4.6,'11111222,11144222,11111222' 
WAVCIS,ioos:station:WAVCIS:CSI06:1,2013-11-02T06:00:00Z,28.8667,-90.4833,10.0,4.1,10.0,5.1,'11111222,11111222,11111222' 
WAVCIS,ioos:station:WAVCIS:CSI06:1,2013-11-02T07:00:00Z,28.8667,-90.4833,10.0,4.6,10.0,6.2,'11111222,11111222,11111222' 
WAVCIS,ioos:station:WAVCIS:CSI06:1,2013-11-02T08:00:00Z,28.8667,-90.4833,10.0,5.7,20.0,6.2,'11111222,11111222,11111222' 
WAVCIS,ioos:station:WAVCIS:CSI06:1,2013-11-02T09:00:00Z,28.8667,-90.4833,10.0,5.1,20.0,7.2,'11111222,11111222,11111222' 
WAVCIS,ioos:station:WAVCIS:CSI06:1,2013-11-02T10:00:00Z,28.8667,-90.4833,10.0,5.7,10.0,6.7,'11111222,11111222,11111222' 
WAVCIS,ioos:station:WAVCIS:CSI06:1,2013-11-02T11:00:00Z,28.8667,-90.4833,10.0,6.2,350.0,10.3,'11111222,11111222,11111222' 
WAVCIS,ioos:station:WAVCIS:CSI06:1,2013-11-02T12:00:00Z,28.8667,-90.4833,10.0,7.2,10.0,9.3,'11111222,11111222,11111222' 
WAVCIS,ioos:station:WAVCIS:CSI06:1,2013-11-02T13:00:00Z,28.8667,-90.4833,10.0,7.7,10.0,10.3,'11111222,11111222,11111222' 
WAVCIS,ioos:station:WAVCIS:CSI06:1,2013-11-02T14:00:00Z,28.8667,-90.4833,10.0,8.8,10.0,9.8,'11111222,11111222,11111222' 
WAVCIS,ioos:station:WAVCIS:CSI06:1,2013-11-02T15:00:00Z,28.8667,-90.4833,10.0,6.7,360.0,9.3,'11111222,11144222,11111222' 
WAVCIS,ioos:station:WAVCIS:CSI06:1,2013-11-02T16:00:00Z,28.8667,-90.4833,10.0,6.2,350.0,9.8,'11111222,11111222,11111222' 
WAVCIS,ioos:station:WAVCIS:CSI06:1,2013-11-02T17:00:00Z,28.8667,-90.4833,10.0,5.1,350.0,8.2,'11111222,11111222,11111222' 
WAVCIS,ioos:station:WAVCIS:CSI06:1,2013-11-02T18:00:00Z,28.8667,-90.4833,10.0,5.1,10.0,7.2,'11111222,11111222,11111222' 
WAVCIS,ioos:station:WAVCIS:CSI06:1,2013-11-02T20:00:00Z,28.8667,-90.4833,10.0,4.1,350.0,6.2,'11111222,11111222,11111222' 
WAVCIS,ioos:station:WAVCIS:CSI06:1,2013-11-02T21:00:00Z,28.8667,-90.4833,10.0,5.7,360.0,8.2,'11111222,11144222,11111222' 
WAVCIS,ioos:station:WAVCIS:CSI06:1,2013-11-02T22:00:00Z,28.8667,-90.4833,10.0,5.1,360.0,8.2,'11111222,11144222,11111222' 
WAVCIS,ioos:station:WAVCIS:CSI06:1,2013-11-02T23:00:00Z,28.8667,-90.4833,10.0,6.7,350.0,10.8,'11111222,11111222,11111222' 
WAVCIS,ioos:station:WAVCIS:CSI06:1,2013-11-03T00:00:00Z,28.8667,-90.4833,10.0,6.7,360.0,9.3,'11111222,11144222,11111222' 
WAVCIS,ioos:station:WAVCIS:CSI06:1,2013-11-03T01:00:00Z,28.8667,-90.4833,10.0,6.2,360.0,9.8,'11111222,11144222,11111222' 
WAVCIS,ioos:station:WAVCIS:CSI06:1,2013-11-03T02:00:00Z,28.8667,-90.4833,10.0,6.7,360.0,11.3,'11111222,11144222,11111222' 
WAVCIS,ioos:station:WAVCIS:CSI06:1,2013-11-03T03:00:00Z,28.8667,-90.4833,10.0,8.2,360.0,12.4,'11111222,11144222,11111222' 
WAVCIS,ioos:station:WAVCIS:CSI06:1,2013-11-03T04:00:00Z,28.8667,-90.4833,10.0,11.8,10.0,14.4,'11111222,11111222,11111222' 
WAVCIS,ioos:station:WAVCIS:CSI06:1,2013-11-03T05:00:00Z,28.8667,-90.4833,10.0,11.8,20.0,13.4,'11111222,11111222,11111222' 
WAVCIS,ioos:station:WAVCIS:CSI06:1,2013-11-03T06:00:00Z,28.8667,-90.4833,10.0,11.8,20.0,14.4,'11111222,11111222,11111222' 
WAVCIS,ioos:station:WAVCIS:CSI06:1,2013-11-03T07:00:00Z,28.8667,-90.4833,10.0,12.4,20.0,14.4,'11111222,11111222,11111222' 
WAVCIS,ioos:station:WAVCIS:CSI06:1,2013-11-03T08:00:00Z,28.8667,-90.4833,10.0,13.9,20.0,16.0,'11111222,11111222,11111222' 
WAVCIS,ioos:station:WAVCIS:CSI06:1,2013-11-03T09:00:00Z,28.8667,-90.4833,10.0,12.4,30.0,14.9,'11111222,11111222,11111222' 
WAVCIS,ioos:station:WAVCIS:CSI06:1,2013-11-03T10:00:00Z,28.8667,-90.4833,10.0,11.8,30.0,14.4,'11111222,11111222,11111222' 
WAVCIS,ioos:station:WAVCIS:CSI06:1,2013-11-03T11:00:00Z,28.8667,-90.4833,10.0,9.8,40.0,12.4,'11111222,11111222,11111222' 
WAVCIS,ioos:station:WAVCIS:CSI06:1,2013-11-03T12:00:00Z,28.8667,-90.4833,10.0,9.8,40.0,11.8,'11111222,11111222,11111222' 
WAVCIS,ioos:station:WAVCIS:CSI06:1,2013-11-03T13:00:00Z,28.8667,-90.4833,10.0,8.8,50.0,10.8,'11111222,11111222,11111222' 
WAVCIS,ioos:station:WAVCIS:CSI06:1,2013-11-03T14:00:00Z,28.8667,-90.4833,10.0,8.8,50.0,10.8,'11111222,11111222,11111222' 
WAVCIS,ioos:station:WAVCIS:CSI06:1,2013-11-03T15:00:00Z,28.8667,-90.4833,10.0,8.8,50.0,11.3,'11111222,11111222,11111222' 
WAVCIS,ioos:station:WAVCIS:CSI06:1,2013-11-03T16:00:00Z,28.8667,-90.4833,10.0,8.2,50.0,10.3,'11111222,11111222,11111222' 
WAVCIS,ioos:station:WAVCIS:CSI06:1,2013-11-03T17:00:00Z,28.8667,-90.4833,10.0,7.2,70.0,8.8,'11111222,11111222,11111222' 
WAVCIS,ioos:station:WAVCIS:CSI06:1,2013-11-03T18:00:00Z,28.8667,-90.4833,10.0,7.7,60.0,9.3,'11111222,11111222,11111222' 
WAVCIS,ioos:station:WAVCIS:CSI06:1,2013-11-03T19:00:00Z,28.8667,-90.4833,10.0,8.2,70.0,9.3,'11111222,11111222,11111222' 
WAVCIS,ioos:station:WAVCIS:CSI06:1,2013-11-03T20:00:00Z,28.8667,-90.4833,10.0,6.7,60.0,8.8,'11111222,11111222,11111222' 
WAVCIS,ioos:station:WAVCIS:CSI06:1,2013-11-03T21:00:00Z,28.8667,-90.4833,10.0,8.8,60.0,11.3,'11111222,11111222,11111222' 
WAVCIS,ioos:station:WAVCIS:CSI06:1,2013-11-03T22:00:00Z,28.8667,-90.4833,10.0,7.7,80.0,10.3,'11111222,11111222,11111222' 
WAVCIS,ioos:station:WAVCIS:CSI06:1,2013-11-03T23:00:00Z,28.8667,-90.4833,10.0,8.8,70.0,11.3,'11111222,11111222,11111222' 
WAVCIS,ioos:station:WAVCIS:CSI06:1,2013-11-04T00:00:00Z,28.8667,-90.4833,10.0,7.7,70.0,9.8,'11111222,11111222,11111222' 
WAVCIS,ioos:station:WAVCIS:CSI06:1,2013-11-04T01:00:00Z,28.8667,-90.4833,10.0,7.2,90.0,9.3,'11111222,11111222,11111222' 
WAVCIS,ioos:station:WAVCIS:CSI06:1,2013-11-04T02:00:00Z,28.8667,-90.4833,10.0,6.2,90.0,8.2,'11111222,11111222,11111222' 
WAVCIS,ioos:station:WAVCIS:CSI06:1,2013-11-04T03:00:00Z,28.8667,-90.4833,10.0,6.7,80.0,7.7,'11111222,11111222,11111222' 
WAVCIS,ioos:station:WAVCIS:CSI06:1,2013-11-04T04:00:00Z,28.8667,-90.4833,10.0,8.2,90.0,11.8,'11111222,11111222,11111222' 
WAVCIS,ioos:station:WAVCIS:CSI06:1,2013-11-04T05:00:00Z,28.8667,-90.4833,10.0,7.7,100.0,10.3,'11111222,11111222,11111222' 
WAVCIS,ioos:station:WAVCIS:CSI06:1,2013-11-04T06:00:00Z,28.8667,-90.4833,10.0,9.3,100.0,11.3,'11111222,11111222,11111222' 
WAVCIS,ioos:station:WAVCIS:CSI06:1,2013-11-04T07:00:00Z,28.8667,-90.4833,10.0,8.8,110.0,10.8,'11111222,11111222,11111222' 
WAVCIS,ioos:station:WAVCIS:CSI06:1,2013-11-04T08:00:00Z,28.8667,-90.4833,10.0,8.2,120.0,10.3,'11111222,11111222,11111222' 
WAVCIS,ioos:station:WAVCIS:CSI06:1,2013-11-04T09:00:00Z,28.8667,-90.4833,10.0,7.2,120.0,9.3,'11111222,11111222,11111222' 
WAVCIS,ioos:station:WAVCIS:CSI06:1,2013-11-04T10:00:00Z,28.8667,-90.4833,10.0,6.7,120.0,9.8,'11111222,11111222,11111222' 
WAVCIS,ioos:station:WAVCIS:CSI06:1,2013-11-04T11:00:00Z,28.8667,-90.4833,10.0,5.7,120.0,8.2,'11111222,11111222,11111222' 
WAVCIS,ioos:station:WAVCIS:CSI06:1,2013-11-04T12:00:00Z,28.8667,-90.4833,10.0,6.2,110.0,7.7,'11111222,11111222,11111222' 
WAVCIS,ioos:station:WAVCIS:CSI06:1,2013-11-04T13:00:00Z,28.8667,-90.4833,10.0,4.6,120.0,6.7,'11111222,11111222,11111222' 
WAVCIS,ioos:station:WAVCIS:CSI06:1,2013-11-04T14:00:00Z,28.8667,-90.4833,10.0,3.1,110.0,4.6,'11111222,11111222,11111222' 
WAVCIS,ioos:station:WAVCIS:CSI06:1,2013-11-04T15:00:00Z,28.8667,-90.4833,10.0,9.3,110.0,10.3,'11111222,11111222,11111222' 
WAVCIS,ioos:station:WAVCIS:CSI06:1,2013-11-04T16:00:00Z,28.8667,-90.4833,10.0,6.7,90.0,8.2,'11111222,11111222,11111222' 
WAVCIS,ioos:station:WAVCIS:CSI06:1,2013-11-05T13:00:00Z,28.8667,-90.4833,10.0,9.8,110.0,11.8,'11111222,11111222,11111222' 
WAVCIS,ioos:station:WAVCIS:CSI06:1,2013-11-05T15:00:00Z,28.8667,-90.4833,10.0,13.4,110.0,14.9,'11111222,11111222,11111222' 
WAVCIS,ioos:station:WAVCIS:CSI06:1,2013-11-05T16:00:00Z,28.8667,-90.4833,10.0,12.9,100.0,14.4,'11111222,11111222,11111222' 
WAVCIS,ioos:station:WAVCIS:CSI06:1,2013-11-05T17:00:00Z,28.8667,-90.4833,10.0,12.9,100.0,14.9,'11111222,11111222,11111222' 
WAVCIS,ioos:station:WAVCIS:CSI06:1,2013-11-05T18:00:00Z,28.8667,-90.4833,10.0,11.8,100.0,13.9,'11111222,11111222,11111222' 
WAVCIS,ioos:station:WAVCIS:CSI06:1,2013-11-05T19:00:00Z,28.8667,-90.4833,10.0,12.4,100.0,13.9,'11111222,11111222,11111222' 
WAVCIS,ioos:station:WAVCIS:CSI06:1,2013-11-05T20:00:00Z,28.8667,-90.4833,10.0,13.4,90.0,14.4,'11111222,11111222,11111222' 
WAVCIS,ioos:station:WAVCIS:CSI06:1,2013-11-05T21:00:00Z,28.8667,-90.4833,10.0,12.9,100.0,14.9,'11111222,11111222,11111222' 
WAVCIS,ioos:station:WAVCIS:CSI06:1,2013-11-05T22:00:00Z,28.8667,-90.4833,10.0,13.9,90.0,15.4,'11111222,11111222,11111222' 
WAVCIS,ioos:station:WAVCIS:CSI06:1,2013-11-05T23:00:00Z,28.8667,-90.4833,10.0,13.9,90.0,16.0,'11111222,11111222,11111222' 
WAVCIS,ioos:station:WAVCIS:CSI06:1,2013-11-06T00:00:00Z,28.8667,-90.4833,10.0,13.9,80.0,16.0,'11111222,11111222,11111222' 
WAVCIS,ioos:station:WAVCIS:CSI06:1,2013-11-06T01:00:00Z,28.8667,-90.4833,10.0,14.4,90.0,16.5,'11111222,11111222,11111222' 
WAVCIS,ioos:station:WAVCIS:CSI06:1,2013-11-06T02:00:00Z,28.8667,-90.4833,10.0,12.9,90.0,14.9,'11111222,11111222,11111222' 
WAVCIS,ioos:station:WAVCIS:CSI06:1,2013-11-06T04:00:00Z,28.8667,-90.4833,10.0,14.4,100.0,15.4,'11111222,11111222,11111222' 
WAVCIS,ioos:station:WAVCIS:CSI06:1,2013-11-06T05:00:00Z,28.8667,-90.4833,10.0,13.9,100.0,16.0,'11111222,11111222,11111222' 
WAVCIS,ioos:station:WAVCIS:CSI06:1,2013-11-06T06:00:00Z,28.8667,-90.4833,10.0,12.9,100.0,14.9,'11111222,11111222,11111222' 
WAVCIS,ioos:station:WAVCIS:CSI06:1,2013-11-06T07:00:00Z,28.8667,-90.4833,10.0,11.8,100.0,13.9,'11111222,11111222,11111222' 
WAVCIS,ioos:station:WAVCIS:CSI06:1,2013-11-06T08:00:00Z,28.8667,-90.4833,10.0,10.8,100.0,12.4,'11111222,11111222,11111222' 
WAVCIS,ioos:station:WAVCIS:CSI06:1,2013-11-06T09:00:00Z,28.8667,-90.4833,10.0,9.8,100.0,10.8,'11111222,11111222,11111222' 
WAVCIS,ioos:station:WAVCIS:CSI06:1,2013-11-06T10:00:00Z,28.8667,-90.4833,10.0,7.7,120.0,8.8,'11111222,11111222,11111222' 
WAVCIS,ioos:station:WAVCIS:CSI06:1,2013-11-06T11:00:00Z,28.8667,-90.4833,10.0,8.8,100.0,9.3,'11111222,11111222,11111222' 
WAVCIS,ioos:station:WAVCIS:CSI06:1,2013-11-06T12:00:00Z,28.8667,-90.4833,10.0,4.1,130.0,7.2,'11111222,11111222,11111222' 
WAVCIS,ioos:station:WAVCIS:CSI06:1,2013-11-06T13:00:00Z,28.8667,-90.4833,10.0,8.2,90.0,9.3,'11111222,11111222,11111222' 
WAVCIS,ioos:station:WAVCIS:CSI06:1,2013-11-06T14:00:00Z,28.8667,-90.4833,10.0,7.7,70.0,9.8,'11111222,11111222,11111222' 
WAVCIS,ioos:station:WAVCIS:CSI06:1,2013-11-06T15:00:00Z,28.8667,-90.4833,10.0,7.2,80.0,7.7,'11111222,11111222,11111222' 
WAVCIS,ioos:station:WAVCIS:CSI06:1,2013-11-06T17:00:00Z,28.8667,-90.4833,10.0,4.6,90.0,5.1,'11111222,11111222,11111222' 
WAVCIS,ioos:station:WAVCIS:CSI06:1,2013-11-06T18:00:00Z,28.8667,-90.4833,10.0,2.1,70.0,3.6,'11111222,11111222,11111222' 
WAVCIS,ioos:station:WAVCIS:CSI06:1,2013-11-06T19:00:00Z,28.8667,-90.4833,10.0,2.6,10.0,3.6,'11111222,11111222,11111222' 
WAVCIS,ioos:station:WAVCIS:CSI06:1,2013-11-06T20:00:00Z,28.8667,-90.4833,10.0,1.0,70.0,1.5,'11111222,11111222,11111222' 
WAVCIS,ioos:station:WAVCIS:CSI06:1,2013-11-06T21:00:00Z,28.8667,-90.4833,10.0,2.1,60.0,3.6,'11111222,11111222,11111222' 
WAVCIS,ioos:station:WAVCIS:CSI06:1,2013-11-06T22:00:00Z,28.8667,-90.4833,10.0,0.5,90.0,1.5,'11111222,11111222,11111222' 
WAVCIS,ioos:station:WAVCIS:CSI06:1,2013-11-06T23:00:00Z,28.8667,-90.4833,10.0,0.0,0.0,0.5,'11111222,11111222,11111222' 
WAVCIS,ioos:station:WAVCIS:CSI06:1,2013-11-07T00:00:00Z,28.8667,-90.4833,10.0,2.1,310.0,2.6,'11111222,11111222,11111222' 
WAVCIS,ioos:station:WAVCIS:CSI06:1,2013-11-07T01:00:00Z,28.8667,-90.4833,10.0,0.0,0.0,1.0,'11111222,11111222,11111222' 
WAVCIS,ioos:station:WAVCIS:CSI06:1,2013-11-07T02:00:00Z,28.8667,-90.4833,10.0,2.1,20.0,2.6,'11111222,11111222,11111222' 
WAVCIS,ioos:station:WAVCIS:CSI06:1,2013-11-07T03:00:00Z,28.8667,-90.4833,10.0,3.1,50.0,3.6,'11111222,11111222,11111222' 
WAVCIS,ioos:station:WAVCIS:CSI06:1,2013-11-07T04:00:00Z,28.8667,-90.4833,10.0,3.1,70.0,4.1,'11111222,11111222,11111222' 
WAVCIS,ioos:station:WAVCIS:CSI06:1,2013-11-07T05:00:00Z,28.8667,-90.4833,10.0,2.6,360.0,3.6,'11111222,11144222,11111222' 
WAVCIS,ioos:station:WAVCIS:CSI06:1,2013-11-07T06:00:00Z,28.8667,-90.4833,10.0,1.5,350.0,2.6,'11111222,11111222,11111222' 
WAVCIS,ioos:station:WAVCIS:CSI06:1,2013-11-07T07:00:00Z,28.8667,-90.4833,10.0,3.6,330.0,4.6,'11111222,11111222,11111222' 
WAVCIS,ioos:station:WAVCIS:CSI06:1,2013-11-07T08:00:00Z,28.8667,-90.4833,10.0,4.1,330.0,4.6,'11111222,11111222,11111222' 
WAVCIS,ioos:station:WAVCIS:CSI06:1,2013-11-07T09:00:00Z,28.8667,-90.4833,10.0,5.7,330.0,6.7,'11111222,11111222,11111222' 
WAVCIS,ioos:station:WAVCIS:CSI06:1,2013-11-07T10:00:00Z,28.8667,-90.4833,10.0,6.7,350.0,10.8,'11111222,11111222,11111222' 
WAVCIS,ioos:station:WAVCIS:CSI06:1,2013-11-07T11:00:00Z,28.8667,-90.4833,10.0,9.3,10.0,12.4,'11111222,11111222,11111222' 
WAVCIS,ioos:station:WAVCIS:CSI06:1,2013-11-07T12:00:00Z,28.8667,-90.4833,10.0,10.3,10.0,13.4,'11111222,11111222,11111222' 
WAVCIS,ioos:station:WAVCIS:CSI06:1,2013-11-07T13:00:00Z,28.8667,-90.4833,10.0,9.3,10.0,12.9,'11111222,11111222,11111222' 
WAVCIS,ioos:station:WAVCIS:CSI06:1,2013-11-07T14:00:00Z,28.8667,-90.4833,10.0,8.8,10.0,12.9,'11111222,11111222,11111222' 
WAVCIS,ioos:station:WAVCIS:CSI06:1,2013-11-07T15:00:00Z,28.8667,-90.4833,10.0,9.3,10.0,13.4,'11111222,11111222,11111222' 
WAVCIS,ioos:station:WAVCIS:CSI06:1,2013-11-07T16:00:00Z,28.8667,-90.4833,10.0,7.7,10.0,10.8,'11111222,11111222,11111222' 
WAVCIS,ioos:station:WAVCIS:CSI06:1,2013-11-07T17:00:00Z,28.8667,-90.4833,10.0,8.8,10.0,12.9,'11111222,11111222,11111222' 
WAVCIS,ioos:station:WAVCIS:CSI06:1,2013-11-07T18:00:00Z,28.8667,-90.4833,10.0,9.8,10.0,13.9,'11111222,11111222,11111222' 
WAVCIS,ioos:station:WAVCIS:CSI06:1,2013-11-07T19:00:00Z,28.8667,-90.4833,10.0,9.3,10.0,12.9,'11111222,11111222,11111222' 
WAVCIS,ioos:station:WAVCIS:CSI06:1,2013-11-07T20:00:00Z,28.8667,-90.4833,10.0,9.3,20.0,12.4,'11111222,11111222,11111222' 
WAVCIS,ioos:station:WAVCIS:CSI06:1,2013-11-07T21:00:00Z,28.8667,-90.4833,10.0,8.8,20.0,12.9,'11111222,11111222,11111222' 
WAVCIS,ioos:station:WAVCIS:CSI06:1,2013-11-07T22:00:00Z,28.8667,-90.4833,10.0,9.8,20.0,14.4,'11111222,11111222,11111222' 
WAVCIS,ioos:station:WAVCIS:CSI06:1,2013-11-07T23:00:00Z,28.8667,-90.4833,10.0,9.3,20.0,13.9,'11111222,11111222,11111222' 
WAVCIS,ioos:station:WAVCIS:CSI06:1,2013-11-08T00:00:00Z,28.8667,-90.4833,10.0,10.8,20.0,16.0,'11111222,11111222,11111222' 
WAVCIS,ioos:station:WAVCIS:CSI06:1,2013-11-08T02:00:00Z,28.8667,-90.4833,10.0,12.9,20.0,17.5,'11111222,11111222,11111222' 
WAVCIS,ioos:station:WAVCIS:CSI06:1,2013-11-08T03:00:00Z,28.8667,-90.4833,10.0,13.4,20.0,16.5,'11111222,11111222,11111222' 
WAVCIS,ioos:station:WAVCIS:CSI06:1,2013-11-08T04:00:00Z,28.8667,-90.4833,10.0,14.9,30.0,18.0,'11111222,11111222,11111222' 
WAVCIS,ioos:station:WAVCIS:CSI06:1,2013-11-08T05:00:00Z,28.8667,-90.4833,10.0,14.9,30.0,18.0,'11111222,11111222,11111222' 
WAVCIS,ioos:station:WAVCIS:CSI06:1,2013-11-08T06:00:00Z,28.8667,-90.4833,10.0,15.4,30.0,19.0,'11111222,11111222,11111222' 
WAVCIS,ioos:station:WAVCIS:CSI06:1,2013-11-08T07:00:00Z,28.8667,-90.4833,10.0,16.5,30.0,19.6,'11111222,11111222,11111222' 
WAVCIS,ioos:station:WAVCIS:CSI06:1,2013-11-08T08:00:00Z,28.8667,-90.4833,10.0,15.4,40.0,17.5,'11111222,11111222,11111222' 
WAVCIS,ioos:station:WAVCIS:CSI06:1,2013-11-08T09:00:00Z,28.8667,-90.4833,10.0,14.9,40.0,17.5,'11111222,11111222,11111222' 
WAVCIS,ioos:station:WAVCIS:CSI06:1,2013-11-08T10:00:00Z,28.8667,-90.4833,10.0,13.9,30.0,16.0,'11111222,11111222,11111222' 
WAVCIS,ioos:station:WAVCIS:CSI06:1,2013-11-08T11:00:00Z,28.8667,-90.4833,10.0,13.9,40.0,16.0,'11111222,11111222,11111222' 
WAVCIS,ioos:station:WAVCIS:CSI06:1,2013-11-08T12:00:00Z,28.8667,-90.4833,10.0,13.4,50.0,16.5,'11111222,11111222,11111222' 
WAVCIS,ioos:station:WAVCIS:CSI06:1,2013-11-08T13:00:00Z,28.8667,-90.4833,10.0,13.9,40.0,17.0,'11111222,11111222,11111222' 
WAVCIS,ioos:station:WAVCIS:CSI06:1,2013-11-08T14:00:00Z,28.8667,-90.4833,10.0,13.9,50.0,16.5,'11111222,11111222,11111222' 
WAVCIS,ioos:station:WAVCIS:CSI06:1,2013-11-08T15:00:00Z,28.8667,-90.4833,10.0,13.9,50.0,16.5,'11111222,11111222,11111222' 
WAVCIS,ioos:station:WAVCIS:CSI06:1,2013-11-08T16:00:00Z,28.8667,-90.4833,10.0,13.9,50.0,17.0,'11111222,11111222,11111222' 
WAVCIS,ioos:station:WAVCIS:CSI06:1,2013-11-08T17:00:00Z,28.8667,-90.4833,10.0,13.9,50.0,16.5,'11111222,11111222,11111222' 
WAVCIS,ioos:station:WAVCIS:CSI06:1,2013-11-08T18:00:00Z,28.8667,-90.4833,10.0,12.9,50.0,17.5,'11111222,11111222,11111222' 
WAVCIS,ioos:station:WAVCIS:CSI06:1,2013-11-08T19:00:00Z,28.8667,-90.4833,10.0,12.4,50.0,15.4,'11111222,11111222,11111222' 
WAVCIS,ioos:station:WAVCIS:CSI06:1,2013-11-08T20:00:00Z,28.8667,-90.4833,10.0,11.8,50.0,14.4,'11111222,11111222,11111222' 
WAVCIS,ioos:station:WAVCIS:CSI06:1,2013-11-08T21:00:00Z,28.8667,-90.4833,10.0,11.8,50.0,13.9,'11111222,11111222,11111222' 
WAVCIS,ioos:station:WAVCIS:CSI06:1,2013-11-08T22:00:00Z,28.8667,-90.4833,10.0,10.3,40.0,12.9,'11111222,11111222,11111222' 
WAVCIS,ioos:station:WAVCIS:CSI06:1,2013-11-08T23:00:00Z,28.8667,-90.4833,10.0,9.3,40.0,11.3,'11111222,11111222,11111222' 
WAVCIS,ioos:station:WAVCIS:CSI06:1,2013-11-09T00:00:00Z,28.8667,-90.4833,10.0,10.3,50.0,12.4,'11111222,11111222,11111222' 
WAVCIS,ioos:station:WAVCIS:CSI06:1,2013-11-09T01:00:00Z,28.8667,-90.4833,10.0,10.8,50.0,12.9,'11111222,11111222,11111222' 
WAVCIS,ioos:station:WAVCIS:CSI06:1,2013-11-09T02:00:00Z,28.8667,-90.4833,10.0,8.8,40.0,11.3,'11111222,11111222,11111222' 
WAVCIS,ioos:station:WAVCIS:CSI06:1,2013-11-09T03:00:00Z,28.8667,-90.4833,10.0,8.8,50.0,11.3,'11111222,11111222,11111222' 
WAVCIS,ioos:station:WAVCIS:CSI06:1,2013-11-09T04:00:00Z,28.8667,-90.4833,10.0,9.3,50.0,10.8,'11111222,11111222,11111222' 
WAVCIS,ioos:station:WAVCIS:CSI06:1,2013-11-09T05:00:00Z,28.8667,-90.4833,10.0,8.2,50.0,10.3,'11111222,11111222,11111222' 
WAVCIS,ioos:station:WAVCIS:CSI06:1,2013-11-09T06:00:00Z,28.8667,-90.4833,10.0,7.2,50.0,9.3,'11111222,11111222,11111222' 
WAVCIS,ioos:station:WAVCIS:CSI06:1,2013-11-09T07:00:00Z,28.8667,-90.4833,10.0,6.2,70.0,8.2,'11111222,11111222,11111222' 
WAVCIS,ioos:station:WAVCIS:CSI06:1,2013-11-09T08:00:00Z,28.8667,-90.4833,10.0,6.2,30.0,8.2,'11111222,11111222,11111222' 
WAVCIS,ioos:station:WAVCIS:CSI06:1,2013-11-09T09:00:00Z,28.8667,-90.4833,10.0,6.2,20.0,7.7,'11111222,11111222,11111222' 
WAVCIS,ioos:station:WAVCIS:CSI06:1,2013-11-09T10:00:00Z,28.8667,-90.4833,10.0,6.7,20.0,9.3,'11111222,11111222,11111222' 
WAVCIS,ioos:station:WAVCIS:CSI06:1,2013-11-09T11:00:00Z,28.8667,-90.4833,10.0,7.7,30.0,9.3,'11111222,11111222,11111222' 
WAVCIS,ioos:station:WAVCIS:CSI06:1,2013-11-09T12:00:00Z,28.8667,-90.4833,10.0,7.7,30.0,8.8,'11111222,11111222,11111222' 
WAVCIS,ioos:station:WAVCIS:CSI06:1,2013-11-09T13:00:00Z,28.8667,-90.4833,10.0,8.2,30.0,9.8,'11111222,11111222,11111222' 
WAVCIS,ioos:station:WAVCIS:CSI06:1,2013-11-09T14:00:00Z,28.8667,-90.4833,10.0,8.2,30.0,9.8,'11111222,11111222,11111222' 
WAVCIS,ioos:station:WAVCIS:CSI06:1,2013-11-09T15:00:00Z,28.8667,-90.4833,10.0,8.2,30.0,9.8,'11111222,11111222,11111222' 
WAVCIS,ioos:station:WAVCIS:CSI06:1,2013-11-09T16:00:00Z,28.8667,-90.4833,10.0,8.2,20.0,9.3,'11111222,11111222,11111222' 
WAVCIS,ioos:station:WAVCIS:CSI06:1,2013-11-09T17:00:00Z,28.8667,-90.4833,10.0,8.2,30.0,9.8,'11111222,11111222,11111222' 
WAVCIS,ioos:station:WAVCIS:CSI06:1,2013-11-09T18:00:00Z,28.8667,-90.4833,10.0,7.7,30.0,9.3,'11111222,11111222,11111222' 
WAVCIS,ioos:station:WAVCIS:CSI06:1,2013-11-09T19:00:00Z,28.8667,-90.4833,10.0,8.2,50.0,9.8,'11111222,11111222,11111222' 
WAVCIS,ioos:station:WAVCIS:CSI06:1,2013-11-09T20:00:00Z,28.8667,-90.4833,10.0,8.2,50.0,10.3,'11111222,11111222,11111222' 
WAVCIS,ioos:station:WAVCIS:CSI06:1,2013-11-09T21:00:00Z,28.8667,-90.4833,10.0,8.8,50.0,9.8,'11111222,11111222,11111222' 
WAVCIS,ioos:station:WAVCIS:CSI06:1,2013-11-09T22:00:00Z,28.8667,-90.4833,10.0,9.3,60.0,10.3,'11111222,11111222,11111222' 
WAVCIS,ioos:station:WAVCIS:CSI06:1,2013-11-09T23:00:00Z,28.8667,-90.4833,10.0,9.8,60.0,10.8,'11111222,11111222,11111222' 
WAVCIS,ioos:station:WAVCIS:CSI06:1,2013-11-10T00:00:00Z,28.8667,-90.4833,10.0,9.3,50.0,10.8,'11111222,11111222,11111222' 
WAVCIS,ioos:station:WAVCIS:CSI06:1,2013-11-10T01:00:00Z,28.8667,-90.4833,10.0,8.8,50.0,9.8,'11111222,11111222,11111222' 
WAVCIS,ioos:station:WAVCIS:CSI06:1,2013-11-10T02:00:00Z,28.8667,-90.4833,10.0,9.3,50.0,10.3,'11111222,11111222,11111222' 
WAVCIS,ioos:station:WAVCIS:CSI06:1,2013-11-10T03:00:00Z,28.8667,-90.4833,10.0,8.8,60.0,9.8,'11111222,11111222,11111222' 